Location: Ferris
(32.5340°N, 96.6656°W)
Time: 10:25:20
(UTC+00:00)

Cosmos 1300 Rocket - Pass Details

Date: 11 February 2026
Orbit: 595 x 619 km, 82.5° (Epoch: 7 March)

Event Time Altitude Azimuth Distance (km) Brightness Sun altitude
Rises 12:10:24 0° 183° (S) 2,863 7.0 -13.8°
Reaches altitude 10° 12:12:36 10° 182° (S) 1,966 6.2 -13.3°
Maximum altitude 12:16:57 81° 96° (E) 629 3.7 -12.4°
Drops below altitude 10° 12:21:21 10° 9° (N) 1,987 6.2 -11.5°
Sets 12:23:35 0° 8° (N) 2,897 7.0 -11.0°
